| time (UTC) | temp F | wind direction | speed MPH | gust MPH | rain 1hr in | rain 24hr in | rain mn in | humidity % | barometer mb |
| 20260510082200 | 69 | 103 | 2.0 | 3.0 | 0.00 | 0.00 | 0.00 | 92 | 1012.1 |
| 20260510081702 | 69 | 356 | 2.0 | 3.0 | 0.00 | 0.00 | 0.00 | 92 | 1012.1 |
| 20260510081201 | 69 | 108 | 2.0 | 3.0 | 0.00 | 0.00 | 0.00 | 91 | 1012.2 |
| 20260510080700 | 69 | 222 | 2.0 | 4.0 | 0.00 | 0.00 | 0.00 | 91 | 1012.2 |
| 20260510080203 | 69 | 176 | 2.0 | 3.0 | 0.00 | 0.00 | 0.00 | 91 | 1012.3 |
| 20260510075700 | 69 | 110 | 1.0 | 2.0 | 0.00 | 0.00 | 0.00 | 91 | 1012.4 |
| 20260510075201 | 68 | 23 | 2.0 | 3.0 | 0.00 | 0.00 | 0.00 | 91 | 1012.3 |
| 20260510074700 | 68 | 305 | 2.0 | 4.0 | 0.00 | 0.00 | 0.00 | 92 | 1012.3 |
| 20260510074201 | 69 | 156 | 6.0 | 8.0 | 0.00 | 0.00 | 0.00 | 92 | 1012.2 |
| 20260510073700 | 69 | 151 | 4.0 | 5.0 | 0.00 | 0.00 | 0.00 | 92 | 1012.3 |
| 20260510073201 | 69 | 142 | 2.0 | 3.0 | 0.00 | 0.00 | 0.00 | 92 | 1012.4 |
| 20260510072700 | 69 | 131 | 2.0 | 3.0 | 0.00 | 0.00 | 0.00 | 92 | 1012.3 |
| 20260510072201 | 69 | 139 | 4.0 | 6.0 | 0.00 | 0.00 | 0.00 | 92 | 1012.4 |
| 20260510071700 | 69 | 129 | 1.0 | 2.0 | 0.00 | 0.00 | 0.00 | 92 | 1012.4 |
| 20260510071200 | 69 | 156 | 3.0 | 5.0 | 0.00 | 0.00 | 0.00 | 92 | 1012.4 |
| 20260510070703 | 69 | 100 | 1.0 | 2.0 | 0.00 | 0.00 | 0.00 | 92 | 1012.2 |
| 20260510070200 | 69 | 140 | 4.0 | 6.0 | 0.00 | 0.00 | 0.00 | 92 | 1012.2 |
| 20260510065700 | 69 | 159 | 6.0 | 8.0 | 0.00 | 0.00 | 0.00 | 92 | 1012.2 |
| 20260510065202 | 69 | 153 | 4.0 | 5.0 | 0.00 | 0.00 | 0.00 | 92 | 1012.3 |
| 20260510064701 | 69 | 159 | 4.0 | 7.0 | 0.00 | 0.00 | 0.00 | 92 | 1012.3 |
| 20260510064200 | 69 | 169 | 4.0 | 8.0 | 0.00 | 0.00 | 0.00 | 92 | 1012.3 |
| 20260510063702 | 69 | 118 | 2.0 | 2.0 | 0.00 | 0.00 | 0.00 | 92 | 1012.3 |
| 20260510063202 | 69 | 150 | 2.0 | 3.0 | 0.00 | 0.00 | 0.00 | 92 | 1012.2 |
| 20260510062700 | 69 | 151 | 3.0 | 3.0 | 0.00 | 0.00 | 0.00 | 92 | 1012.1 |
| 20260510062201 | 69 | 137 | 3.0 | 6.0 | 0.00 | 0.00 | 0.00 | 92 | 1012.0 |
| 20260510061700 | 69 | 158 | 3.0 | 4.0 | 0.00 | 0.00 | 0.00 | 92 | 1012.1 |
| 20260510061200 | 69 | 159 | 3.0 | 3.0 | 0.00 | 0.00 | 0.00 | 92 | 1012.1 |
| 20260510060701 | 69 | 139 | 4.0 | 6.0 | 0.00 | 0.00 | 0.00 | 92 | 1012.0 |
| 20260510060200 | 69 | 155 | 5.0 | 6.0 | 0.00 | 0.00 | 0.00 | 92 | 1012.0 |
| 20260510055700 | 69 | 151 | 4.0 | 5.0 | 0.00 | 0.00 | 0.00 | 92 | 1012.1 |
| 20260510055200 | 69 | 156 | 5.0 | 6.0 | 0.00 | 0.00 | 0.00 | 92 | 1012.2 |
| 20260510054700 | 69 | 156 | 5.0 | 6.0 | 0.00 | 0.00 | 0.00 | 92 | 1012.2 |
| 20260510054200 | 69 | 151 | 3.0 | 5.0 | 0.00 | 0.00 | 0.00 | 92 | 1012.3 |
| 20260510053701 | 69 | 161 | 4.0 | 5.0 | 0.00 | 0.00 | 0.00 | 92 | 1012.3 |
| 20260510053200 | 69 | 150 | 2.0 | 4.0 | 0.00 | 0.00 | 0.00 | 92 | 1012.3 |
| 20260510052700 | 69 | 165 | 4.0 | 7.0 | 0.00 | 0.00 | 0.00 | 92 | 1012.3 |
| 20260510052203 | 69 | 168 | 6.0 | 11.0 | 0.00 | 0.00 | 0.00 | 92 | 1012.3 |
| 20260510051700 | 69 | 156 | 4.0 | 6.0 | 0.00 | 0.00 | 0.00 | 92 | 1012.4 |
| 20260510051200 | 69 | 167 | 5.0 | 7.0 | 0.00 | 0.00 | 0.00 | 92 | 1012.4 |
| 20260510050700 | 69 | 154 | 6.0 | 8.0 | 0.00 | 0.00 | 0.00 | 92 | 1012.3 |
| 20260510050202 | 69 | 160 | 5.0 | 8.0 | 0.00 | 0.00 | 0.00 | 92 | 1012.4 |
| 20260510045701 | 69 | 145 | 5.0 | 7.0 | 0.00 | 0.00 | 0.19 | 92 | 1012.3 |
| 20260510045204 | 69 | 155 | 4.0 | 8.0 | 0.00 | 0.00 | 0.19 | 92 | 1012.3 |
| 20260510044700 | 69 | 156 | 7.0 | 9.0 | 0.00 | 0.00 | 0.19 | 92 | 1012.4 |
| 20260510044201 | 69 | 153 | 5.0 | 7.0 | 0.00 | 0.00 | 0.19 | 92 | 1012.4 |
| 20260510043701 | 69 | 168 | 6.0 | 9.0 | 0.00 | 0.00 | 0.19 | 92 | 1012.4 |
| 20260510043200 | 69 | 150 | 5.0 | 7.0 | 0.00 | 0.00 | 0.19 | 92 | 1012.4 |
| 20260510042701 | 69 | 144 | 4.0 | 7.0 | 0.00 | 0.00 | 0.19 | 92 | 1012.4 |
| 20260510042200 | 69 | 129 | 3.0 | 4.0 | 0.00 | 0.00 | 0.19 | 92 | 1012.3 |
| 20260510041701 | 69 | 152 | 4.0 | 6.0 | 0.00 | 0.00 | 0.19 | 92 | 1012.4 |
| 20260510041200 | 69 | 148 | 5.0 | 6.0 | 0.00 | 0.00 | 0.19 | 92 | 1012.4 |
| 20260510040702 | 69 | 145 | 4.0 | 5.0 | 0.00 | 0.00 | 0.19 | 92 | 1012.4 |
| 20260510040201 | 69 | 142 | 4.0 | 5.0 | 0.00 | 0.00 | 0.19 | 92 | 1012.5 |
| 20260510035700 | 69 | 135 | 4.0 | 4.0 | 0.00 | 0.00 | 0.19 | 92 | 1012.6 |
| 20260510035200 | 69 | 156 | 5.0 | 9.0 | 0.00 | 0.00 | 0.19 | 92 | 1012.6 |
| 20260510034701 | 69 | 155 | 6.0 | 9.0 | 0.00 | 0.00 | 0.19 | 92 | 1012.6 |
| 20260510034201 | 69 | 153 | 6.0 | 8.0 | 0.00 | 0.00 | 0.19 | 92 | 1012.6 |
| 20260510033700 | 69 | 145 | 4.0 | 4.0 | 0.00 | 0.00 | 0.19 | 92 | 1012.4 |
| 20260510033201 | 69 | 124 | 4.0 | 5.0 | 0.00 | 0.00 | 0.19 | 92 | 1012.5 |
| 20260510032701 | 69 | 135 | 3.0 | 4.0 | 0.00 | 0.00 | 0.19 | 92 | 1012.5 |
| 20260510032200 | 69 | 111 | 2.0 | 3.0 | 0.00 | 0.00 | 0.19 | 92 | 1012.5 |
| 20260510031703 | 69 | 145 | 4.0 | 5.0 | 0.00 | 0.00 | 0.19 | 92 | 1012.5 |
| 20260510031202 | 69 | 149 | 4.0 | 7.0 | 0.00 | 0.00 | 0.19 | 92 | 1012.4 |
| 20260510030700 | 69 | 129 | 2.0 | 5.0 | 0.00 | 0.00 | 0.19 | 92 | 1012.4 |
| 20260510030201 | 69 | 153 | 4.0 | 8.0 | 0.00 | 0.00 | 0.19 | 92 | 1012.4 |
| 20260510025701 | 69 | 145 | 4.0 | 5.0 | 0.00 | 0.00 | 0.19 | 92 | 1012.3 |
| 20260510025200 | 69 | 151 | 5.0 | 6.0 | 0.00 | 0.00 | 0.19 | 92 | 1012.2 |
| 20260510024701 | 69 | 161 | 5.0 | 6.0 | 0.00 | 0.00 | 0.19 | 92 | 1012.2 |
| 20260510024200 | 69 | 159 | 4.0 | 5.0 | 0.00 | 0.00 | 0.19 | 92 | 1012.1 |
| 20260510023701 | 69 | 143 | 3.0 | 5.0 | 0.00 | 0.00 | 0.19 | 92 | 1012.0 |
| 20260510023201 | 69 | 157 | 4.0 | 5.0 | 0.00 | 0.00 | 0.19 | 92 | 1012.0 |
| 20260510022701 | 69 | 150 | 5.0 | 6.0 | 0.00 | 0.00 | 0.19 | 91 | 1011.9 |
| 20260510022201 | 69 | 106 | 2.0 | 4.0 | 0.00 | 0.00 | 0.19 | 91 | 1012.0 |
| 20260510021701 | 69 | 92 | 1.0 | 3.0 | 0.00 | 0.00 | 0.19 | 91 | 1011.9 |
| 20260510021200 | 70 | 99 | 2.0 | 3.0 | 0.00 | 0.00 | 0.19 | 91 | 1011.8 |
| 20260510020701 | 70 | 103 | 2.0 | 2.0 | 0.00 | 0.00 | 0.19 | 91 | 1011.8 |
| 20260510020200 | 70 | 107 | 1.0 | 2.0 | 0.00 | 0.00 | 0.19 | 90 | 1011.6 |
| 20260510015702 | 70 | 112 | 2.0 | 3.0 | 0.00 | 0.00 | 0.19 | 90 | 1011.6 |
| 20260510015201 | 70 | 99 | 2.0 | 3.0 | 0.00 | 0.00 | 0.19 | 90 | 1011.6 |
| 20260510014702 | 71 | 84 | 2.0 | 4.0 | 0.00 | 0.00 | 0.19 | 89 | 1011.5 |
| 20260510014200 | 71 | 108 | 1.0 | 2.0 | 0.00 | 0.00 | 0.19 | 89 | 1011.6 |
| 20260510013701 | 71 | 89 | 1.0 | 2.0 | 0.00 | 0.00 | 0.19 | 89 | 1011.4 |
| 20260510013200 | 71 | 134 | 3.0 | 4.0 | 0.00 | 0.00 | 0.19 | 88 | 1011.4 |
| 20260510012701 | 71 | 143 | 2.0 | 4.0 | 0.00 | 0.00 | 0.19 | 88 | 1011.3 |
| 20260510012200 | 71 | 154 | 4.0 | 4.0 | 0.00 | 0.00 | 0.19 | 88 | 1011.2 |
| 20260510011700 | 71 | 152 | 2.0 | 4.0 | 0.00 | 0.00 | 0.19 | 88 | 1011.1 |
| 20260510011200 | 71 | 122 | 1.0 | 3.0 | 0.00 | 0.00 | 0.19 | 87 | 1011.0 |
| 20260510010700 | 72 | 126 | 1.0 | 2.0 | 0.00 | 0.00 | 0.19 | 87 | 1011.0 |
| 20260510010201 | 72 | 155 | 3.0 | 5.0 | 0.00 | 0.00 | 0.19 | 87 | 1010.9 |
| 20260510005700 | 72 | 119 | 2.0 | 5.0 | 0.00 | 0.00 | 0.19 | 86 | 1010.8 |
| 20260510005200 | 72 | 164 | 2.0 | 4.0 | 0.00 | 0.00 | 0.19 | 86 | 1010.7 |
| 20260510004700 | 72 | 128 | 3.0 | 5.0 | 0.00 | 0.00 | 0.19 | 85 | 1010.8 |
| 20260510004200 | 73 | 96 | 2.0 | 4.0 | 0.00 | 0.00 | 0.19 | 85 | 1010.8 |
| 20260510003700 | 73 | 156 | 3.0 | 6.0 | 0.00 | 0.00 | 0.19 | 84 | 1010.7 |
| 20260510003200 | 73 | 163 | 5.0 | 9.0 | 0.00 | 0.00 | 0.19 | 84 | 1010.7 |
| 20260510002700 | 73 | 153 | 4.0 | 6.0 | 0.00 | 0.00 | 0.19 | 83 | 1010.8 |
| 20260510002200 | 73 | 134 | 4.0 | 6.0 | 0.00 | 0.00 | 0.19 | 83 | 1010.8 |
| 20260510001700 | 73 | 153 | 6.0 | 9.0 | 0.00 | 0.00 | 0.19 | 82 | 1010.7 |
| 20260510001201 | 74 | 131 | 3.0 | 6.0 | 0.00 | 0.00 | 0.19 | 83 | 1010.7 |
| 20260510000700 | 74 | 147 | 3.0 | 6.0 | 0.00 | 0.00 | 0.19 | 83 | 1010.7 |
| 20260510000204 | 74 | 140 | 4.0 | 5.0 | 0.00 | 0.00 | 0.19 | 83 | 1010.8 |
| 20260509235700 | 74 | 160 | 5.0 | 7.0 | 0.00 | 0.00 | 0.19 | 83 | 1010.7 |
| 20260509235201 | 74 | 107 | 6.0 | 9.0 | 0.00 | 0.00 | 0.19 | 83 | 1010.6 |
| 20260509234700 | 74 | 151 | 5.0 | 7.0 | 0.00 | 0.00 | 0.19 | 83 | 1010.6 |
| 20260509234200 | 74 | 153 | 8.0 | 13.0 | 0.00 | 0.00 | 0.19 | 82 | 1010.4 |
| 20260509233701 | 74 | 107 | 7.0 | 12.0 | 0.00 | 0.00 | 0.19 | 82 | 1010.6 |
| 20260509233201 | 75 | 106 | 8.0 | 12.0 | 0.00 | 0.00 | 0.19 | 82 | 1010.5 |
| 20260509232700 | 76 | 134 | 10.0 | 14.0 | 0.00 | 0.00 | 0.19 | 81 | 1010.5 |
| 20260509232201 | 76 | 118 | 8.0 | 14.0 | 0.00 | 0.00 | 0.19 | 81 | 1010.4 |
| 20260509231701 | 78 | 142 | 6.0 | 9.0 | 0.00 | 0.00 | 0.19 | 81 | 1010.2 |
| 20260509231201 | 79 | 100 | 8.0 | 12.0 | 0.00 | 0.00 | 0.19 | 80 | 1010.2 |
| 20260509230701 | 80 | 109 | 8.0 | 13.0 | 0.00 | 0.00 | 0.19 | 80 | 1010.0 |
| 20260509230201 | 80 | 77 | 7.0 | 8.0 | 0.00 | 0.00 | 0.19 | 78 | 1009.9 |
| 20260509225701 | 80 | 79 | 5.0 | 6.0 | 0.00 | 0.00 | 0.19 | 78 | 1010.0 |
| 20260509225200 | 80 | 72 | 6.0 | 7.0 | 0.00 | 0.00 | 0.19 | 78 | 1010.0 |
| 20260509224700 | 81 | 99 | 4.0 | 5.0 | 0.00 | 0.00 | 0.19 | 77 | 1009.9 |
| 20260509224200 | 82 | 86 | 3.0 | 4.0 | 0.00 | 0.00 | 0.19 | 76 | 1010.0 |
| 20260509223700 | 82 | 72 | 4.0 | 5.0 | 0.00 | 0.00 | 0.19 | 76 | 1009.8 |
| 20260509223201 | 82 | 75 | 3.0 | 6.0 | 0.00 | 0.00 | 0.19 | 77 | 1009.7 |
| 20260509222701 | 82 | 60 | 3.0 | 4.0 | 0.00 | 0.00 | 0.19 | 78 | 1009.6 |
| 20260509222204 | 81 | 10 | 0.0 | 2.0 | 0.00 | 0.00 | 0.19 | 78 | 1009.5 |
| 20260509221700 | 81 | 79 | 2.0 | 4.0 | 0.00 | 0.00 | 0.19 | 78 | 1009.3 |
| 20260509221201 | 81 | 47 | 2.0 | 4.0 | 0.00 | 0.00 | 0.19 | 78 | 1009.3 |
| 20260509220701 | 82 | 70 | 2.0 | 3.0 | 0.00 | 0.00 | 0.19 | 78 | 1009.3 |
| 20260509220202 | 82 | 54 | 3.0 | 5.0 | 0.00 | 0.00 | 0.19 | 75 | 1009.3 |
| 20260509215701 | 83 | 59 | 0.0 | 2.0 | 0.00 | 0.00 | 0.19 | 73 | 1009.3 |
| 20260509215200 | 82 | 325 | 0.0 | 2.0 | 0.00 | 0.00 | 0.19 | 75 | 1009.2 |
| 20260509214701 | 82 | 92 | 4.0 | 5.0 | 0.00 | 0.00 | 0.19 | 76 | 1009.3 |
| 20260509214201 | 82 | 101 | 2.0 | 3.0 | 0.00 | 0.00 | 0.19 | 74 | 1009.3 |
| 20260509213701 | 82 | 111 | 2.0 | 4.0 | 0.00 | 0.00 | 0.19 | 78 | 1009.4 |
| 20260509213200 | 82 | 90 | 3.0 | 4.0 | 0.00 | 0.00 | 0.19 | 77 | 1009.4 |
| 20260509212701 | 82 | 50 | 1.0 | 4.0 | 0.00 | 0.00 | 0.19 | 77 | 1009.5 |
| 20260509212200 | 82 | 20 | 1.0 | 3.0 | 0.00 | 0.00 | 0.19 | 77 | 1009.6 |
| 20260509211700 | 81 | 71 | 2.0 | 4.0 | 0.00 | 0.00 | 0.19 | 77 | 1009.6 |
| 20260509211201 | 81 | 37 | 2.0 | 3.0 | 0.00 | 0.00 | 0.19 | 79 | 1009.7 |
| 20260509210701 | 81 | 12 | 2.0 | 3.0 | 0.00 | 0.00 | 0.19 | 79 | 1009.8 |
| 20260509210201 | 81 | 73 | 2.0 | 3.0 | 0.00 | 0.00 | 0.19 | 78 | 1009.9 |
| 20260509205701 | 81 | 53 | 2.0 | 4.0 | 0.00 | 0.00 | 0.19 | 78 | 1009.9 |
| 20260509205202 | 81 | 67 | 5.0 | 7.0 | 0.00 | 0.00 | 0.19 | 78 | 1010.0 |
| 20260509204703 | 81 | 21 | 2.0 | 5.0 | 0.00 | 0.00 | 0.19 | 78 | 1010.1 |
| 20260509204200 | 80 | 347 | 0.0 | 1.0 | 0.00 | 0.00 | 0.19 | 79 | 1010.1 |
| 20260509203700 | 80 | 90 | 3.0 | 4.0 | 0.00 | 0.00 | 0.19 | 80 | 1010.2 |
| 20260509203200 | 81 | 69 | 4.0 | 6.0 | 0.00 | 0.00 | 0.19 | 79 | 1010.3 |
| 20260509202700 | 81 | 110 | 4.0 | 4.0 | 0.00 | 0.00 | 0.19 | 78 | 1010.3 |
| 20260509202200 | 81 | 23 | 0.0 | 1.0 | 0.00 | 0.00 | 0.19 | 79 | 1010.3 |
| 20260509201700 | 80 | 151 | 1.0 | 2.0 | 0.00 | 0.00 | 0.19 | 80 | 1010.3 |
| 20260509201201 | 79 | 308 | 0.0 | 2.0 | 0.00 | 0.00 | 0.19 | 81 | 1010.4 |
| 20260509200702 | 79 | 116 | 2.0 | 4.0 | 0.00 | 0.00 | 0.19 | 82 | 1010.4 |
| 20260509200202 | 79 | 132 | 0.0 | 1.0 | 0.00 | 0.00 | 0.19 | 82 | 1010.5 |
| 20260509195700 | 79 | 149 | 2.0 | 2.0 | 0.00 | 0.00 | 0.19 | 81 | 1010.4 |
| 20260509195201 | 78 | 206 | 1.0 | 3.0 | 0.00 | 0.00 | 0.19 | 84 | 1010.4 |
| 20260509194702 | 78 | 123 | 1.0 | 2.0 | 0.00 | 0.00 | 0.19 | 84 | 1010.4 |
| 20260509194200 | 78 | 165 | 4.0 | 5.0 | 0.00 | 0.00 | 0.19 | 84 | 1010.4 |
| 20260509193700 | 78 | 157 | 3.0 | 4.0 | 0.00 | 0.00 | 0.19 | 85 | 1010.5 |
| 20260509193201 | 78 | 152 | 4.0 | 5.0 | 0.00 | 0.00 | 0.19 | 85 | 1010.5 |
| 20260509192701 | 78 | 102 | 2.0 | 4.0 | 0.00 | 0.00 | 0.19 | 84 | 1010.6 |
| 20260509192201 | 78 | 255 | 1.0 | 2.0 | 0.00 | 0.00 | 0.19 | 84 | 1010.6 |
| 20260509191700 | 78 | 225 | 2.0 | 3.0 | 0.00 | 0.00 | 0.19 | 84 | 1010.7 |
| 20260509191204 | 77 | 170 | 1.0 | 3.0 | 0.00 | 0.00 | 0.19 | 85 | 1010.8 |
| 20260509190702 | 77 | 123 | 1.0 | 2.0 | 0.00 | 0.00 | 0.19 | 86 | 1010.8 |
| 20260509190200 | 77 | 95 | 4.0 | 5.0 | 0.00 | 0.00 | 0.19 | 86 | 1010.8 |
| 20260509185700 | 78 | 144 | 3.0 | 8.0 | 0.00 | 0.00 | 0.19 | 85 | 1010.9 |
| 20260509185201 | 78 | 140 | 2.0 | 3.0 | 0.00 | 0.00 | 0.19 | 85 | 1011.0 |
| 20260509184702 | 77 | 213 | 2.0 | 4.0 | 0.00 | 0.00 | 0.19 | 85 | 1011.0 |
| 20260509184201 | 77 | 160 | 2.0 | 3.0 | 0.00 | 0.00 | 0.19 | 85 | 1011.0 |
| 20260509183701 | 77 | 146 | 3.0 | 4.0 | 0.00 | 0.00 | 0.19 | 86 | 1011.1 |
| 20260509183200 | 76 | 169 | 3.0 | 4.0 | 0.00 | 0.00 | 0.19 | 86 | 1011.0 |
| 20260509182702 | 76 | 188 | 0.0 | 1.0 | 0.00 | 0.00 | 0.19 | 87 | 1011.1 |
| 20260509182202 | 75 | 66 | 2.0 | 4.0 | 0.00 | 0.00 | 0.19 | 88 | 1011.2 |
| 20260509181702 | 75 | 60 | 0.0 | 0.0 | 0.00 | 0.00 | 0.19 | 89 | 1011.3 |
| 20260509181202 | 75 | 0 | 0.0 | 0.0 | 0.00 | 0.00 | 0.19 | 89 | 1011.4 |
| 20260509180702 | 75 | 356 | 0.0 | 1.0 | 0.00 | 0.00 | 0.19 | 89 | 1011.4 |
| 20260509180202 | 75 | 298 | 1.0 | 2.0 | 0.00 | 0.00 | 0.19 | 89 | 1011.4 |
| 20260509175703 | 75 | 318 | 0.0 | 0.0 | 0.00 | 0.00 | 0.19 | 88 | 1011.5 |
| 20260509175200 | 75 | 0 | 0.0 | 0.0 | 0.00 | 0.00 | 0.19 | 89 | 1011.6 |
| 20260509174701 | 75 | 0 | 0.0 | 0.0 | 0.00 | 0.00 | 0.19 | 88 | 1011.7 |
| 20260509174200 | 75 | 345 | 1.0 | 2.0 | 0.00 | 0.00 | 0.19 | 88 | 1011.7 |
| 20260509173701 | 75 | 315 | 0.0 | 0.0 | 0.00 | 0.00 | 0.19 | 88 | 1011.8 |
| 20260509173201 | 75 | 0 | 0.0 | 0.0 | 0.00 | 0.00 | 0.19 | 89 | 1011.9 |
| 20260509172705 | 74 | 153 | 0.0 | 0.0 | 0.00 | 0.00 | 0.19 | 90 | 1011.8 |
| 20260509172200 | 74 | 210 | 1.0 | 2.0 | 0.00 | 0.00 | 0.19 | 91 | 1011.8 |
| 20260509171701 | 74 | 0 | 0.0 | 0.0 | 0.00 | 0.00 | 0.19 | 93 | 1011.9 |
| 20260509171202 | 73 | 171 | 2.0 | 2.0 | 0.00 | 0.00 | 0.19 | 94 | 1011.8 |
| 20260509170700 | 73 | 132 | 0.0 | 0.0 | 0.00 | 0.00 | 0.19 | 95 | 1011.8 |
| 20260509170202 | 73 | 104 | 2.0 | 3.0 | 0.00 | 0.00 | 0.19 | 94 | 1012.0 |
| 20260509165700 | 72 | 70 | 2.0 | 3.0 | 0.00 | 0.00 | 0.19 | 95 | 1012.0 |
| 20260509165210 | 72 | 141 | 2.0 | 2.0 | 0.00 | 0.00 | 0.19 | 95 | 1012.0 |
| 20260509164700 | 72 | 134 | 2.0 | 3.0 | 0.00 | 0.00 | 0.19 | 96 | 1012.0 |
| 20260509164201 | 71 | 133 | 3.0 | 4.0 | 0.00 | 0.00 | 0.19 | 95 | 1012.1 |
| 20260509163701 | 71 | 131 | 3.0 | 4.0 | 0.00 | 0.00 | 0.19 | 95 | 1012.0 |
| 20260509163202 | 71 | 132 | 2.0 | 2.0 | 0.00 | 0.00 | 0.19 | 96 | 1011.8 |
| 20260509162701 | 70 | 135 | 3.0 | 4.0 | 0.00 | 0.00 | 0.19 | 96 | 1011.9 |
| 20260509162200 | 70 | 133 | 4.0 | 5.0 | 0.00 | 0.00 | 0.19 | 96 | 1011.8 |
| 20260509161701 | 70 | 133 | 4.0 | 4.0 | 0.00 | 0.00 | 0.19 | 96 | 1011.8 |
| 20260509161200 | 70 | 134 | 4.0 | 4.0 | 0.00 | 0.00 | 0.19 | 96 | 1011.8 |
| 20260509160701 | 70 | 133 | 4.0 | 4.0 | 0.00 | 0.00 | 0.19 | 96 | 1011.8 |
| 20260509160203 | 70 | 132 | 3.0 | 4.0 | 0.00 | 0.00 | 0.19 | 96 | 1011.8 |
| 20260509155703 | 70 | 132 | 3.0 | 4.0 | 0.00 | 0.00 | 0.19 | 96 | 1011.7 |
| 20260509155201 | 70 | 131 | 3.0 | 3.0 | 0.00 | 0.00 | 0.19 | 96 | 1011.6 |
| 20260509154700 | 70 | 132 | 3.0 | 3.0 | 0.00 | 0.00 | 0.19 | 96 | 1011.5 |
| 20260509154200 | 69 | 133 | 2.0 | 2.0 | 0.00 | 0.00 | 0.19 | 96 | 1011.6 |
| 20260509153700 | 69 | 138 | 2.0 | 2.0 | 0.00 | 0.00 | 0.19 | 96 | 1011.5 |
| 20260509153202 | 69 | 138 | 2.0 | 3.0 | 0.00 | 0.00 | 0.19 | 96 | 1011.4 |
| 20260509152702 | 69 | 127 | 2.0 | 3.0 | 0.00 | 0.00 | 0.19 | 96 | 1011.5 |
| 20260509152202 | 69 | 133 | 2.0 | 2.0 | 0.00 | 0.00 | 0.19 | 96 | 1011.6 |
| 20260509151700 | 69 | 138 | 2.0 | 2.0 | 0.00 | 0.00 | 0.19 | 96 | 1011.5 |
| 20260509151201 | 69 | 110 | 2.0 | 2.0 | 0.00 | 0.00 | 0.19 | 96 | 1011.4 |
| 20260509150702 | 69 | 99 | 1.0 | 2.0 | 0.00 | 0.00 | 0.19 | 96 | 1011.3 |
| 20260509150203 | 69 | 85 | 3.0 | 4.0 | 0.00 | 0.00 | 0.19 | 96 | 1011.2 |
| 20260509145701 | 68 | 83 | 2.0 | 3.0 | 0.00 | 0.00 | 0.19 | 96 | 1011.2 |
| 20260509145202 | 68 | 97 | 3.0 | 4.0 | 0.00 | 0.00 | 0.19 | 96 | 1011.2 |
| 20260509144703 | 68 | 319 | 1.0 | 2.0 | 0.00 | 0.00 | 0.19 | 96 | 1011.3 |
| 20260509144202 | 68 | 133 | 2.0 | 2.0 | 0.00 | 0.00 | 0.19 | 96 | 1011.3 |
| 20260509143700 | 68 | 319 | 2.0 | 2.0 | 0.00 | 0.00 | 0.19 | 96 | 1011.4 |
| 20260509143200 | 68 | 134 | 2.0 | 2.0 | 0.00 | 0.00 | 0.19 | 96 | 1011.4 |
| 20260509142705 | 68 | 124 | 2.0 | 2.0 | 0.00 | 0.00 | 0.19 | 96 | 1011.7 |
| 20260509142201 | 68 | 132 | 2.0 | 3.0 | 0.00 | 0.00 | 0.19 | 96 | 1011.7 |
| 20260509141700 | 68 | 132 | 4.0 | 4.0 | 0.00 | 0.00 | 0.19 | 96 | 1011.8 |
| 20260509141202 | 68 | 138 | 4.0 | 4.0 | 0.00 | 0.00 | 0.19 | 96 | 1011.7 |
| 20260509140703 | 68 | 126 | 3.0 | 3.0 | 0.00 | 0.00 | 0.19 | 96 | 1011.7 |
| 20260509140201 | 68 | 154 | 3.0 | 4.0 | 0.00 | 0.00 | 0.19 | 96 | 1011.7 |
| 20260509135700 | 68 | 162 | 3.0 | 3.0 | 0.00 | 0.00 | 0.19 | 96 | 1011.7 |
| 20260509135201 | 68 | 117 | 2.0 | 4.0 | 0.00 | 0.00 | 0.19 | 96 | 1011.6 |
| 20260509134701 | 68 | 139 | 3.0 | 4.0 | 0.00 | 0.00 | 0.19 | 96 | 1011.5 |
| 20260509134201 | 68 | 143 | 3.0 | 5.0 | 0.00 | 0.00 | 0.19 | 96 | 1011.6 |
| 20260509133702 | 68 | 131 | 2.0 | 3.0 | 0.00 | 0.00 | 0.19 | 96 | 1011.7 |
| 20260509133202 | 68 | 140 | 4.0 | 6.0 | 0.00 | 0.00 | 0.19 | 96 | 1011.6 |
| 20260509132700 | 68 | 158 | 4.0 | 6.0 | 0.00 | 0.00 | 0.19 | 96 | 1011.6 |
| 20260509132201 | 68 | 179 | 5.0 | 8.0 | 0.00 | 0.00 | 0.19 | 96 | 1011.7 |
| 20260509131700 | 68 | 162 | 5.0 | 8.0 | 0.00 | 0.00 | 0.19 | 95 | 1011.7 |
| 20260509131201 | 68 | 119 | 3.0 | 3.0 | 0.00 | 0.00 | 0.19 | 96 | 1011.8 |
| 20260509130703 | 68 | 124 | 2.0 | 3.0 | 0.00 | 0.00 | 0.19 | 95 | 1011.7 |
| 20260509130202 | 68 | 120 | 2.0 | 2.0 | 0.00 | 0.00 | 0.19 | 95 | 1011.7 |
| 20260509125700 | 68 | 99 | 2.0 | 4.0 | 0.00 | 0.00 | 0.19 | 96 | 1011.5 |
| 20260509125202 | 68 | 142 | 4.0 | 8.0 | 0.00 | 0.00 | 0.19 | 95 | 1011.4 |
| 20260509124703 | 68 | 24 | 2.0 | 3.0 | 0.00 | 0.00 | 0.19 | 95 | 1011.3 |
| 20260509124201 | 67 | 102 | 4.0 | 5.0 | 0.00 | 0.00 | 0.19 | 95 | 1011.1 |
| 20260509123701 | 67 | 105 | 2.0 | 4.0 | 0.00 | 0.00 | 0.19 | 95 | 1011.1 |
| 20260509123202 | 67 | 133 | 2.0 | 3.0 | 0.01 | 0.00 | 0.19 | 95 | 1011.1 |
| 20260509122702 | 67 | 105 | 2.0 | 4.0 | 0.01 | 0.00 | 0.19 | 95 | 1011.1 |
| 20260509122202 | 67 | 139 | 5.0 | 9.0 | 0.02 | 0.00 | 0.19 | 95 | 1011.1 |
| 20260509121702 | 67 | 138 | 4.0 | 7.0 | 0.02 | 0.00 | 0.19 | 95 | 1011.2 |
| 20260509121201 | 67 | 137 | 4.0 | 6.0 | 0.02 | 0.00 | 0.19 | 95 | 1011.2 |
| 20260509120703 | 67 | 75 | 3.0 | 4.0 | 0.03 | 0.00 | 0.19 | 95 | 1011.2 |
| 20260509120200 | 67 | 85 | 2.0 | 3.0 | 0.04 | 0.00 | 0.19 | 95 | 1011.1 |
| 20260509115701 | 67 | 115 | 3.0 | 3.0 | 0.04 | 0.00 | 0.19 | 95 | 1011.1 |
| 20260509115202 | 67 | 112 | 3.0 | 4.0 | 0.04 | 0.00 | 0.19 | 95 | 1011.0 |
| 20260509114702 | 67 | 86 | 2.0 | 3.0 | 0.04 | 0.00 | 0.19 | 95 | 1011.0 |
| 20260509114202 | 67 | 117 | 3.0 | 3.0 | 0.03 | 0.00 | 0.19 | 95 | 1011.1 |
| 20260509113702 | 67 | 113 | 2.0 | 3.0 | 0.02 | 0.00 | 0.19 | 95 | 1011.1 |
| 20260509113200 | 67 | 139 | 3.0 | 4.0 | 0.02 | 0.00 | 0.18 | 95 | 1011.2 |
| 20260509112701 | 67 | 109 | 3.0 | 4.0 | 0.02 | 0.00 | 0.18 | 95 | 1011.1 |
| 20260509112207 | 67 | 117 | 3.0 | 4.0 | 0.02 | 0.00 | 0.18 | 95 | 1011.1 |
| 20260509111701 | 67 | 148 | 4.0 | 7.0 | 0.02 | 0.00 | 0.17 | 95 | 1011.2 |
| 20260509111203 | 67 | 57 | 2.0 | 3.0 | 0.02 | 0.00 | 0.17 | 95 | 1011.1 |
| 20260509110702 | 67 | 126 | 3.0 | 4.0 | 0.02 | 0.00 | 0.17 | 95 | 1011.1 |
| 20260509110202 | 67 | 102 | 2.0 | 3.0 | 0.00 | 0.00 | 0.17 | 95 | 1011.2 |
| 20260509105702 | 67 | 345 | 2.0 | 3.0 | 0.00 | 0.00 | 0.17 | 95 | 1011.2 |
| 20260509105200 | 67 | 23 | 3.0 | 4.0 | 0.00 | 0.00 | 0.15 | 95 | 1011.2 |
| 20260509104701 | 67 | 117 | 2.0 | 3.0 | 0.00 | 0.00 | 0.15 | 95 | 1011.0 |
| 20260509104201 | 67 | 133 | 2.0 | 3.0 | 0.00 | 0.00 | 0.15 | 95 | 1011.0 |
| 20260509103706 | 67 | 131 | 4.0 | 5.0 | 0.00 | 0.00 | 0.15 | 95 | 1010.9 |
| 20260509103201 | 67 | 102 | 2.0 | 3.0 | 0.00 | 0.00 | 0.15 | 95 | 1010.8 |
| 20260509102702 | 68 | 113 | 2.0 | 4.0 | 0.00 | 0.00 | 0.15 | 95 | 1010.8 |
| 20260509102200 | 68 | 106 | 5.0 | 7.0 | 0.00 | 0.00 | 0.33 | 95 | 1010.7 |
| 20260509101704 | 68 | 67 | 5.0 | 7.0 | 0.00 | 0.00 | 0.33 | 95 | 1010.8 |
| 20260509101202 | 69 | 105 | 4.0 | 4.0 | 0.00 | 0.00 | 0.33 | 95 | 1010.8 |
| 20260509100703 | 69 | 74 | 3.0 | 4.0 | 0.33 | 0.00 | 0.33 | 95 | 1010.7 |
| 20260509100202 | 69 | 87 | 2.0 | 3.0 | 0.33 | 0.00 | 0.33 | 95 | 1010.6 |
| 20260509095702 | 69 | 95 | 2.0 | 4.0 | 0.33 | 0.00 | 0.33 | 95 | 1010.5 |
| 20260509095200 | 69 | 56 | 2.0 | 3.0 | 0.33 | 0.00 | 0.33 | 95 | 1010.4 |
| 20260509094702 | 69 | 71 | 2.0 | 3.0 | 0.33 | 0.00 | 0.33 | 94 | 1010.2 |
| 20260509094200 | 69 | 112 | 3.0 | 3.0 | 0.33 | 0.00 | 0.33 | 94 | 1010.1 |
| 20260509093704 | 69 | 141 | 3.0 | 4.0 | 0.33 | 0.00 | 0.33 | 94 | 1010.0 |
| 20260509093200 | 69 | 135 | 3.0 | 4.0 | 0.33 | 0.00 | 0.33 | 94 | 1009.9 |
| 20260509092701 | 69 | 125 | 2.0 | 6.0 | 0.03 | 0.00 | 0.33 | 94 | 1010.1 |
| 20260509092200 | 69 | 114 | 3.0 | 5.0 | 0.03 | 0.00 | 0.33 | 94 | 1010.2 |
| 20260509091700 | 69 | 87 | 6.0 | 7.0 | 0.00 | 0.00 | 0.03 | 94 | 1010.4 |
| 20260509091200 | 69 | 160 | 3.0 | 4.0 | 0.00 | 0.00 | 0.03 | 94 | 1010.6 |
| 20260509090701 | 69 | 137 | 2.0 | 3.0 | 0.00 | 0.00 | 0.03 | 94 | 1010.7 |
| 20260509090203 | 69 | 64 | 4.0 | 6.0 | 0.00 | 0.00 | 0.03 | 94 | 1010.7 |
| 20260509085700 | 69 | 77 | 2.0 | 3.0 | 0.00 | 0.00 | 0.00 | 94 | 1010.7 |
| 20260509085200 | 69 | 74 | 3.0 | 3.0 | 0.00 | 0.00 | 0.00 | 94 | 1010.6 |
| 20260509084700 | 69 | 44 | 2.0 | 2.0 | 0.00 | 0.00 | 0.00 | 94 | 1010.6 |
| 20260509084201 | 69 | 356 | 2.0 | 2.0 | 0.00 | 0.00 | 0.00 | 94 | 1010.7 |
| 20260509083701 | 69 | 99 | 2.0 | 3.0 | 0.00 | 0.00 | 0.00 | 94 | 1010.7 |
| 20260509083201 | 69 | 95 | 2.0 | 2.0 | 0.00 | 0.00 | 0.00 | 94 | 1010.8 |
| 20260509082701 | 70 | 100 | 2.0 | 2.0 | 0.00 | 0.00 | 0.00 | 94 | 1010.8 |